Theta_e
316 316 316 316 316 316 316 316 317 317 317 317 317 316 316 315 315 315 315 315 315 314 314 313 311 310 309 310 310 311 313 314 314 314 314 314 314 314 313 313 313 312 312 311 310 310 310 310 309 308 306 306 306 307 308 308 309 309 309 309 309 309 309 310 309 309 308 308 307 307 307 307 307 307 306 306 306 306 305 305 305 304 304 304 304 305
315 316 316 316 316 316 316 316 316 316 316 316 316 315 315 315 315 315 315 315 314 314 313 312 311 310 309 309 310 311 313 313 314 314 314 313 313 313 313 312 312 311 310 309 309 310 310 309 308 307 305 306 306 307 307 307 308 308 309 309 309 310 310 310 309 308 307 307 306 306 306 306 306 306 306 305 305 305 304 304 304 304 303 304 304 305
314 314 314 315 315 315 315 315 315 315 315 315 315 315 314 314 314 314 314 314 314 314 313 312 311 309 309 310 311 312 313 313 313 313 313 313 312 312 312 312 311 310 309 309 309 309 308 308 307 306 305 306 306 306 307 307 308 308 309 309 309 309 309 309 308 307 306 305 305 305 305 305 305 305 304 304 304 304 303 303 303 303 303 303 303 304
313 313 313 313 313 314 314 315 315 315 314 314 314 313 313 312 313 313 313 314 313 313 312 311 310 309 309 311 312 312 313 313 313 313 312 312 312 312 312 311 310 309 309 308 308 307 307 307 306 305 305 306 306 306 306 307 307 308 308 308 308 308 307 307 306 305 304 303 303 304 304 304 304 303 303 303 303 303 303 303 302 302 302 303 303 303
312 312 312 312 312 312 313 314 314 314 313 313 312 311 311 311 311 312 312 312 312 312 311 310 309 309 310 311 312 313 312 312 312 312 312 312 312 312 311 310 310 309 308 308 307 307 306 306 305 305 305 305 305 306 306 306 307 307 307 307 307 306 306 305 304 303 303 303 303 303 303 303 303 303 303 302 302 302 302 302 302 302 302 302 302 303
312 311 311 311 311 311 311 312 312 312 311 311 310 310 310 310 311 311 311 311 311 310 310 309 309 309 310 311 312 312 311 310 310 310 310 311 311 310 310 309 309 308 308 307 306 306 305 305 305 305 305 305 305 305 305 306 306 306 306 305 305 304 304 303 302 302 302 302 302 303 303 303 303 302 302 302 302 302 301 301 301 301 301 301 301 302
312 311 311 310 310 310 310 310 310 310 310 309 309 309 309 309 309 310 310 310 310 309 308 308 308 309 310 311 311 311 310 309 309 309 309 309 309 309 308 308 308 307 307 306 305 305 304 304 304 304 304 304 304 304 304 305 305 305 304 304 304 303 303 302 302 302 302 302 302 302 302 302 302 302 302 302 301 301 301 300 300 300 300 300 300 301
311 310 309 309 309 308 308 308 309 309 309 308 308 308 307 308 308 308 308 308 308 308 307 308 308 309 310 310 310 310 309 308 308 307 307 307 307 307 307 307 306 306 306 305 305 304 304 303 303 303 303 303 303 303 303 303 303 303 303 303 303 303 302 302 302 302 302 302 302 302 301 301 301 301 301 300 300 300 300 300 299 299 299 299 299 300
310 309 308 308 307 307 307 307 307 307 307 308 308 307 307 306 306 306 307 307 306 307 307 307 308 309 309 309 309 309 308 307 307 307 306 306 306 305 305 305 305 305 306 305 304 304 303 303 302 302 302 302 301 301 301 302 302 302 302 302 302 302 302 302 302 302 301 301 301 301 301 301 301 301 300 300 300 299 299 299 299 298 298 298 298 298
309 309 307 307 307 307 306 306 306 306 306 307 307 307 307 306 305 304 304 305 305 306 306 307 308 308 308 308 308 308 307 307 307 306 306 305 305 305 304 304 304 304 305 304 303 303 302 302 302 301 301 300 300 300 300 300 300 301 301 301 301 301 301 301 301 301 301 301 301 301 300 300 300 300 299 299 299 298 298 297 297 297 297 297 297 297
308 308 307 306 305 305 306 306 305 305 305 305 305 306 306 306 304 303 302 303 304 305 305 306 307 307 306 306 306 306 306 306 305 305 305 305 304 304 304 303 303 303 304 303 302 302 301 301 300 300 300 299 299 299 299 300 300 300 300 301 301 301 301 301 300 300 300 299 299 298 298 298 297 297 297 296 296 295 295 295 295 295 296 296 296 297
307 307 307 306 304 304 304 305 305 304 304 303 303 303 303 303 304 303 302 302 303 304 304 305 306 306 306 305 305 305 305 305 304 304 303 303 303 303 302 302 302 302 302 302 301 301 300 300 299 299 299 298 298 298 298 299 299 299 299 299 299 299 298 298 298 297 296 296 295 294 294 293 293 293 292 292 292 292 291 291 292 293 295 295 296 296
307 307 306 305 304 303 303 303 302 302 302 302 302 302 301 301 302 303 303 303 303 303 304 304 304 305 305 305 304 304 304 304 304 303 303 302 302 302 302 301 301 301 301 300 300 300 299 299 299 298 298 297 297 297 298 298 297 297 296 296 295 295 294 294 293 292 291 290 290 289 289 289 289 289 289 289 288 288 288 289 290 292 294 295 295 296
306 306 306 305 304 303 302 301 300 300 300 301 302 302 302 301 301 301 302 302 302 303 303 303 303 303 304 304 304 304 303 303 303 302 302 302 302 301 301 300 300 300 300 300 299 299 298 298 298 297 297 297 297 297 297 296 295 294 292 291 291 290 290 289 288 288 287 287 286 287 287 287 288 288 288 287 287 287 287 288 290 292 294 294 295 295
305 305 304 303 303 303 302 300 301 301 301 302 302 302 302 301 301 301 301 301 301 301 301 301 302 302 302 302 302 303 303 302 302 302 301 301 301 301 301 300 300 299 299 299 299 298 298 298 298 297 297 297 297 296 296 294 293 291 290 289 288 288 287 287 286 286 285 285 285 286 287 288 288 289 289 288 288 287 287 288 290 292 293 294 294 295
305 305 304 303 303 303 302 301 301 302 302 302 302 301 301 301 300 300 300 300 300 299 299 299 299 300 300 300 301 302 302 301 301 301 301 301 301 301 300 300 299 299 298 298 298 298 297 297 297 297 297 297 296 296 295 293 291 290 289 288 287 287 286 286 286 285 285 285 286 286 287 288 289 290 290 289 289 289 289 290 291 292 293 293 294 294
305 305 304 304 304 303 303 301 301 302 302 301 301 301 301 300 300 300 300 300 299 298 298 299 299 299 299 299 299 300 301 301 300 300 300 300 300 300 300 300 299 298 298 298 298 297 297 297 297 297 297 297 296 295 294 293 291 290 289 288 287 286 286 286 286 286 285 286 286 287 288 289 290 290 290 290 290 290 290 290 291 292 293 293 293 294
305 304 304 304 304 304 303 301 301 301 301 301 301 300 300 301 300 300 300 299 298 298 299 299 300 300 300 299 298 299 300 300 300 299 299 299 300 300 300 299 299 299 298 297 297 297 297 297 297 297 297 296 296 295 294 292 291 290 288 288 287 286 286 286 286 286 286 286 287 288 289 290 290 290 291 290 290 290 290 291 291 292 292 293 293 293
304 304 304 304 304 304 303 302 301 301 301 301 300 300 300 300 300 300 299 299 299 299 299 299 300 301 301 300 299 299 299 300 300 299 298 298 298 299 299 299 299 298 298 297 297 296 296 296 297 296 296 296 295 295 294 292 291 289 288 287 287 287 287 287 287 287 287 287 287 288 289 290 290 290 291 290 290 290 290 291 291 292 292 292 293 293
304 304 304 304 304 304 304 302 301 301 301 301 300 300 299 299 299 299 299 299 299 299 299 299 300 300 301 300 299 299 299 299 299 298 297 296 297 298 298 298 298 298 297 297 296 296 296 296 296 296 295 295 294 294 293 292 290 289 288 287 287 287 287 288 288 288 287 287 288 288 289 289 290 290 290 290 290 290 290 290 291 291 291 292 292 292
303 304 304 304 304 304 304 303 302 301 301 301 300 300 300 299 299 299 299 299 298 298 299 299 299 300 300 300 300 299 299 299 298 298 297 295 295 295 297 297 297 297 296 296 296 295 295 295 295 295 295 294 294 293 292 291 290 289 288 287 287 287 288 288 288 288 288 288 288 288 289 289 290 290 290 290 290 290 290 290 290 291 291 291 291 292
303 303 303 303 303 303 304 303 303 302 302 301 301 300 300 299 299 299 299 298 298 298 298 299 300 300 300 300 300 299 299 299 298 298 297 294 293 293 295 296 296 296 295 295 295 295 295 294 294 294 294 293 293 292 292 290 289 288 288 287 287 288 288 288 288 288 288 288 288 288 289 290 290 290 290 290 290 290 290 290 290 290 290 290 291 291
303 303 303 303 303 303 303 303 303 302 302 301 301 301 300 300 299 299 299 298 298 298 299 299 299 299 299 299 299 299 299 298 298 298 297 295 293 292 293 294 294 294 294 294 294 294 294 294 294 294 293 293 292 292 291 290 289 288 287 287 288 288 289 289 289 289 289 288 288 289 289 290 290 290 290 290 290 290 290 290 290 290 290 290 290 290
303 303 302 303 303 303 303 303 303 303 302 302 301 301 301 301 300 300 300 299 299 298 298 297 297 297 297 298 298 298 298 298 298 297 297 296 294 292 292 292 293 293 292 293 293 293 293 293 293 293 293 292 291 291 290 289 288 288 287 288 288 288 289 289 289 289 289 288 288 289 290 290 290 290 290 290 290 290 290 289 289 289 289 289 290 290
302 302 302 302 302 303 303 303 303 303 302 302 302 301 301 301 300 300 300 299 298 298 297 296 295 295 295 295 295 296 297 297 297 297 297 296 293 291 291 292 292 292 291 291 292 292 292 292 292 292 292 291 290 290 289 289 288 288 287 288 288 289 289 289 289 289 289 288 288 289 290 290 290 290 290 290 290 290 289 289 289 289 289 289 289 289
302 302 302 302 302 302 303 303 303 303 303 302 302 302 301 300 300 299 298 298 297 296 295 294 294 293 292 293 293 294 295 296 296 297 297 295 292 290 290 291 291 291 290 291 291 291 291 291 291 291 291 291 290 289 289 288 288 287 288 288 288 289 289 289 289 289 289 288 288 289 290 290 290 290 290 290 289 289 289 289 289 289 289 289 289 289
301 301 301 302 302 302 303 303 303 303 303 302 302 302 301 300 299 298 297 296 296 295 294 295 294 293 291 291 292 293 294 295 295 296 296 295 292 289 289 290 291 290 290 290 290 290 291 291 290 290 290 290 289 289 288 288 287 287 288 288 288 288 289 289 289 289 288 288 289 289 290 290 290 290 289 289 289 289 289 289 288 288 288 288 289 289
300 301 301 301 301 302 302 302 302 302 302 302 302 301 301 300 298 297 295 295 295 295 295 295 295 293 291 291 292 292 293 294 294 295 296 295 293 290 289 289 290 290 289 289 289 289 289 290 290 290 289 289 289 288 288 288 287 287 288 288 288 288 289 289 289 289 288 288 289 289 290 290 290 289 289 289 289 289 288 288 288 288 288 288 288 288
300 300 300 301 301 301 301 301 301 301 301 301 301 301 300 300 299 297 297 296 295 295 295 296 296 294 292 292 291 291 291 292 293 294 295 295 293 290 289 289 289 289 288 287 287 287 288 288 289 289 289 288 288 288 288 288 288 287 288 288 288 288 289 289 289 289 289 289 289 289 290 289 289 289 289 289 289 289 288 288 288 288 287 287 288 288
299 300 300 300 301 301 301 300 300 300 300 301 301 301 300 300 300 299 298 296 295 295 296 296 296 294 292 290 289 289 290 291 292 293 294 294 292 290 288 288 288 288 288 287 286 285 285 287 288 288 288 288 287 287 287 288 288 287 287 288 288 289 289 289 289 289 289 289 289 289 289 289 289 289 289 289 288 288 288 288 288 287 287 287 287 288
299 299 300 300 300 300 300 299 299 299 300 300 300 300 300 300 300 299 298 297 296 296 296 296 295 294 291 290 290 290 290 291 291 292 293 294 292 289 288 287 288 288 288 289 288 286 285 285 286 287 287 286 286 286 286 287 287 287 287 287 288 288 289 289 289 289 289 289 289 289 289 289 289 289 289 288 288 288 288 288 288 287 287 288 288 288
299 299 299 299 300 299 299 299 299 299 299 300 300 299 299 299 299 299 298 297 297 296 296 296 295 293 292 292 292 293 292 291 291 292 293 293 291 289 288 288 287 287 288 289 290 289 286 284 284 285 285 285 285 285 285 286 286 286 286 286 287 288 289 289 289 289 289 289 289 289 289 289 289 289 288 288 288 288 288 288 287 287 288 288 288 288
298 298 299 299 299 299 299 298 298 299 299 300 299 299 298 298 298 298 298 298 298 297 296 296 295 293 292 293 293 294 293 292 292 292 292 292 291 289 288 288 287 287 287 288 289 289 287 285 284 284 284 284 284 284 285 285 285 285 285 285 286 287 288 289 289 289 289 289 289 289 289 289 289 289 289 288 288 288 288 288 287 287 288 288 288 288
297 297 298 298 298 298 298 298 298 299 299 299 299 298 298 298 298 298 298 298 298 298 297 296 295 294 292 293 293 293 292 292 292 292 292 292 291 289 288 288 287 286 286 287 288 288 287 285 284 284 284 284 284 284 284 284 284 284 284 285 285 286 287 288 289 289 289 289 289 289 290 289 289 289 289 289 289 288 288 288 288 287 288 288 288 288
296 296 297 297 297 297 297 298 298 298 299 299 298 298 298 298 298 297 297 297 298 297 297 297 296 295 294 293 292 292 291 292 292 292 291 292 291 290 288 288 287 287 286 286 287 286 285 285 285 284 284 284 284 284 284 284 284 284 284 284 284 285 286 288 288 289 288 289 289 289 289 289 289 289 289 288 288 288 287 287 287 287 288 288 288 288
295 295 295 296 296 296 297 297 297 297 298 298 298 298 297 297 297 297 297 297 297 297 297 296 296 296 295 295 294 293 292 292 292 292 292 292 292 291 289 288 287 287 287 286 287 286 285 284 284 284 284 284 283 284 284 284 283 283 283 283 283 284 285 287 288 289 289 289 289 289 289 289 289 288 288 288 287 286 286 285 285 286 286 287 287 288
294 294 294 294 295 295 296 296 296 296 296 296 297 297 297 297 297 297 297 297 297 296 296 296 295 295 295 295 295 295 294 294 293 292 292 292 292 292 290 289 288 288 288 287 287 286 285 284 284 284 284 284 284 283 284 284 283 283 283 283 283 284 285 287 288 289 289 288 289 289 289 288 288 288 287 287 286 285 284 284 284 284 284 284 285 286
293 293 294 294 294 294 295 295 295 295 295 295 295 296 296 296 296 296 296 296 296 296 295 295 295 294 294 294 294 294 294 294 294 293 293 292 292 292 291 290 288 288 288 288 287 287 286 285 284 284 284 284 284 284 284 284 283 283 283 283 284 284 286 287 288 289 289 288 288 288 288 288 288 287 286 285 285 284 284 284 284 284 284 284 284 284
293 293 293 293 293 294 294 294 294 293 293 294 294 295 295 295 295 295 295 295 295 295 294 294 294 294 294 293 293 293 293 294 294 294 293 292 292 292 291 290 289 288 288 288 288 287 287 286 285 284 284 284 284 284 284 284 284 284 284 285 285 286 287 287 288 289 289 288 288 288 288 288 287 287 286 285 284 284 284 284 284 285 285 285 284 284
293 293 293 293 293 293 293 293 293 292 292 293 293 294 294 294 294 294 294 294 294 293 293 293 293 293 293 293 293 293 293 293 293 293 293 293 292 291 291 291 290 288 288 288 288 288 287 287 286 285 284 284 284 284 284 283 284 284 285 285 286 286 287 288 288 289 289 288 288 288 288 287 287 287 286 285 285 285 285 285 285 285 285 284 284 284
292 292 292 292 292 292 292 292 292 291 291 292 292 292 292 293 292 292 292 292 292 292 292 293 293 292 292 292 292 292 292 292 292 292 292 292 291 291 291 291 290 289 288 287 287 287 287 287 286 285 284 284 284 284 283 283 284 285 285 285 286 286 287 288 288 288 288 288 288 288 288 287 287 286 286 286 285 285 285 285 285 285 285 284 284 283
292 292 292 292 292 291 291 291 290 290 291 291 291 291 291 291 291 291 290 290 290 291 291 291 291 291 290 290 290 291 291 291 291 291 291 291 290 290 290 290 290 289 288 287 287 287 287 287 286 285 284 284 284 284 284 284 284 285 285 285 286 286 286 287 288 288 288 288 288 288 287 287 287 286 286 286 286 286 285 285 285 285 284 284 283 283
292 292 291 291 291 290 290 289 289 289 289 289 289 289 290 290 290 290 290 289 289 289 290 290 290 289 288 287 288 288 289 289 289 289 289 289 289 289 289 289 290 290 289 288 287 286 286 286 286 286 285 285 284 284 283 284 284 285 285 285 285 285 286 286 286 287 287 287 287 287 287 287 286 286 286 286 286 286 285 285 285 284 284 283 283 282
291 291 290 290 289 289 288 288 287 287 288 288 288 288 288 289 289 289 289 288 288 288 288 288 288 288 286 285 285 285 286 287 287 287 288 288 288 288 288 288 289 289 289 288 287 286 285 285 285 285 285 285 284 284 284 284 284 285 285 285 285 285 285 286 286 286 286 286 286 286 286 286 286 286 286 286 285 285 285 285 284 284 283 282 282 282
291 290 289 289 288 288 287 287 286 286 287 287 287 287 287 288 288 288 288 287 287 287 287 287 287 286 284 283 283 284 284 285 285 286 286 286 286 287 287 288 288 289 289 288 288 287 285 285 285 285 285 285 285 284 284 284 284 284 285 285 285 286 286 286 286 286 286 286 286 286 286 286 286 286 285 285 285 285 284 284 283 283 282 282 282 282
290 289 288 288 287 287 286 286 286 286 286 286 286 286 286 287 287 287 287 287 286 286 286 286 286 285 284 283 283 283 283 284 284 285 285 285 285 286 286 287 287 287 287 287 287 287 286 285 285 285 285 285 284 284 284 284 284 284 285 285 285 285 285 286 286 286 286 286 286 286 286 286 285 285 285 285 284 284 283 283 282 282 282 282 282 282
289 288 287 287 286 286 286 286 285 285 285 285 285 285 285 286 286 286 286 286 286 285 285 286 286 285 283 283 282 282 283 283 283 284 284 284 285 285 285 286 286 286 286 286 285 285 285 285 285 285 285 284 284 284 284 284 284 284 284 285 285 285 285 285 285 285 286 286 286 286 285 285 285 284 284 284 283 283 282 282 282 282 282 282 282 282
288 287 287 286 286 286 286 285 285 285 285 284 284 284 284 285 285 285 285 285 285 285 284 285 284 284 283 282 282 282 282 282 282 283 283 284 284 284 284 285 285 285 285 285 284 284 284 285 285 285 285 285 284 284 284 284 285 284 284 285 284 285 285 285 285 284 285 285 285 285 285 284 284 284 283 283 282 282 282 282 282 282 282 282 282 282
288 287 286 286 286 286 285 285 285 285 284 284 284 284 284 284 284 285 284 284 284 284 284 284 284 283 282 282 282 282 282 282 282 282 283 283 283 284 284 284 284 284 284 284 284 284 284 284 285 285 285 285 285 285 285 284 285 285 285 285 285 284 285 285 284 284 284 284 284 284 284 284 283 283 283 282 282 282 282 282 282 282 282 282 282 282
287 287 286 286 286 286 285 285 285 284 284 284 283 283 283 283 284 284 284 284 284 284 284 284 283 282 282 281 281 282 282 282 282 282 282 283 283 283 283 283 283 283 283 284 284 284 284 284 284 284 284 285 285 285 285 285 285 285 285 285 284 284 284 284 284 284 283 283 283 283 283 283 283 282 282 282 282 282 282 282 282 282 282 282 282 282
287 286 286 286 286 286 285 285 285 284 284 284 283 283 283 283 283 283 283 283 283 283 283 283 283 282 282 281 281 281 281 281 281 281 282 282 283 283 283 283 283 283 283 283 283 283 283 283 283 284 284 284 284 285 285 285 285 284 284 284 284 284 284 284 284 283 283 283 283 283 283 283 282 282 282 282 282 282 282 282 282 282 282 282 282 283
Wind_Speed
21 22 22 22 21 20 20 20 20 20 20 19 19 18 17 16 15 14 14 14 15 16 17 19 21 23 24 25 25 25 25 26 26 26 27 27 27 25 24 21 19 17 14 12 11 10 10 10 11 12 12 12 12 12 11 11 10 10 9 9 9 9 9 10 11 12 13 13 13 14 14 13 13 12 12 11 9 8 6 5 4 4 4 5 6 5
19 20 21 22 21 20 21 21 21 21 20 20 19 19 18 16 16 15 15 15 15 16 18 19 22 23 24 24 25 25 26 27 27 28 27 27 26 24 22 20 18 16 13 11 10 10 10 10 10 11 13 13 13 12 12 12 11 10 10 10 10 10 11 12 12 13 13 13 13 13 13 12 12 11 10 9 8 7 6 5 5 5 5 6 6 5
17 18 20 21 21 21 21 22 22 22 21 20 20 19 17 16 16 16 16 16 16 17 18 20 22 24 24 24 24 26 27 28 28 28 28 27 25 23 21 19 17 14 12 11 10 10 9 9 10 12 13 13 14 14 13 13 14 14 14 15 15 15 16 16 16 15 15 14 13 13 12 11 11 11 10 9 8 7 6 6 6 6 7 7 7 6
17 19 20 21 21 22 22 22 22 22 21 20 19 18 17 17 17 17 17 17 17 17 19 21 23 24 24 24 25 27 29 29 29 29 28 27 24 22 20 19 16 14 13 11 10 10 9 10 11 13 14 14 14 14 15 15 16 16 17 17 18 18 19 19 18 17 16 15 14 13 13 12 12 11 10 9 8 7 7 7 7 7 8 8 8 6
19 20 21 21 21 22 22 22 21 21 21 20 19 18 17 17 18 18 18 17 18 19 20 22 23 24 24 25 26 28 29 29 29 29 28 27 24 22 21 19 17 15 13 12 11 10 11 12 13 14 15 15 15 16 16 17 17 18 18 18 19 19 19 19 18 17 16 15 15 14 14 13 12 12 11 10 9 8 8 7 8 8 8 9 8 7
19 20 20 20 21 21 22 22 22 21 21 20 19 18 18 18 19 18 18 19 19 20 21 22 24 24 24 25 27 28 28 28 27 27 26 25 24 22 21 19 17 16 14 13 12 12 12 14 15 16 16 16 16 16 17 17 18 18 18 19 19 19 18 18 18 17 16 16 15 14 13 13 12 11 11 10 9 8 8 8 7 8 8 9 9 8
17 18 18 19 20 21 22 22 23 22 22 21 20 20 19 19 19 19 19 20 20 20 21 22 23 24 25 26 27 28 27 26 25 24 23 22 22 21 20 19 17 16 15 14 14 14 14 15 16 17 17 17 16 16 17 17 17 17 17 18 18 18 18 17 16 15 15 14 13 13 12 11 10 10 10 9 9 9 8 8 7 7 7 8 9 9
14 15 16 18 19 21 21 22 23 23 23 22 21 21 20 20 21 21 20 20 20 20 21 22 23 24 25 26 27 27 27 25 23 22 21 20 19 19 19 18 17 17 16 15 15 15 15 16 17 17 17 17 16 16 16 16 16 16 16 16 16 16 16 15 14 13 13 12 12 11 11 10 10 10 10 10 10 9 9 9 8 7 7 7 9 10
15 14 16 19 20 20 20 20 22 23 23 22 22 21 20 20 21 21 21 21 21 21 21 22 23 24 25 26 27 28 27 25 24 22 21 20 19 19 19 18 17 17 16 16 16 16 16 17 17 17 17 16 16 16 16 16 16 16 16 15 15 15 14 14 13 13 12 12 12 12 12 12 12 12 12 12 11 11 11 10 10 9 8 7 8 9
18 16 16 18 20 21 19 18 20 23 23 23 22 21 21 20 20 19 19 20 21 21 21 22 23 24 25 26 27 27 27 25 24 23 22 21 21 20 20 19 18 17 17 16 16 17 17 17 17 17 16 16 16 16 16 16 16 16 16 15 15 14 14 14 14 13 13 13 13 14 14 14 14 14 14 14 14 13 13 12 12 10 9 8 7 8
18 18 17 17 19 20 20 19 20 22 23 23 22 22 22 21 20 18 17 18 20 21 22 23 24 25 25 26 26 27 26 25 24 23 22 21 21 20 20 19 18 18 17 17 17 17 17 17 16 16 16 15 15 16 16 16 16 15 15 15 15 14 15 15 15 15 15 15 15 15 15 16 16 16 16 16 15 15 14 13 13 12 11 10 8 8
17 17 17 16 17 18 19 19 20 22 23 21 19 18 19 22 22 20 18 18 20 22 23 23 25 25 26 26 27 27 27 26 25 24 23 22 21 20 20 19 19 18 17 17 17 17 17 16 16 16 16 16 16 16 16 15 15 14 14 14 14 14 14 15 15 15 15 15 14 14 15 15 15 15 15 14 14 14 13 13 13 13 12 11 9 8
17 17 16 16 16 17 18 17 18 19 21 20 18 17 17 20 21 21 19 20 21 22 24 25 25 26 27 28 28 28 27 27 26 25 24 23 22 21 21 20 20 19 19 19 18 18 17 17 17 17 17 16 16 15 15 14 13 12 12 12 12 13 13 14 14 14 14 13 13 12 12 12 12 11 11 11 11 11 12 12 13 13 13 12 10 8
16 16 15 15 16 17 17 18 17 17 19 20 21 20 19 20 21 21 19 19 20 22 24 25 25 25 26 28 29 29 28 28 27 26 25 24 23 22 22 22 22 21 21 20 20 19 18 18 18 18 17 17 15 14 13 12 11 10 10 10 11 11 11 11 11 11 11 11 11 10 10 9 8 8 8 8 9 9 10 11 12 13 13 12 10 9
15 14 13 13 14 16 17 18 19 19 20 21 21 20 19 19 20 21 19 17 18 21 22 23 23 23 22 25 28 29 29 28 27 26 26 25 24 24 23 23 23 22 22 22 21 20 20 19 19 19 17 16 15 14 12 11 10 9 8 8 9 9 9 9 9 9 9 9 9 9 8 8 7 6 6 6 7 8 9 11 12 13 13 12 10 9
15 14 13 14 15 17 18 19 19 20 20 20 20 19 18 18 20 20 19 18 18 19 19 18 16 16 18 22 26 29 29 29 28 27 27 26 25 25 25 25 25 24 23 23 22 22 21 20 20 19 17 16 14 13 12 10 9 7 7 7 7 7 7 7 7 8 8 8 9 9 8 8 7 7 6 6 7 8 9 10 12 12 12 12 11 10
16 16 16 16 17 17 19 20 21 21 20 20 20 20 20 20 21 20 20 19 19 18 18 17 12 8 10 16 23 28 30 30 28 27 27 27 26 26 26 26 26 26 25 24 24 23 23 22 21 19 17 15 14 13 11 9 8 6 6 5 5 6 6 6 7 7 8 8 9 9 9 9 8 7 7 7 7 8 10 11 12 12 12 12 11 11
17 17 17 17 18 18 18 19 20 21 20 20 20 21 22 22 22 22 21 21 20 18 18 18 14 10 8 11 19 28 31 31 28 26 26 26 27 28 27 27 27 27 27 26 25 24 23 23 21 19 17 15 14 13 11 9 7 6 5 5 5 6 6 6 7 7 8 8 9 10 10 9 9 8 8 8 8 9 10 11 12 12 12 12 12 12
18 19 18 18 19 19 18 19 20 20 20 20 20 20 20 20 21 22 22 22 21 20 20 18 18 17 15 14 21 30 32 32 29 25 24 24 27 29 28 28 28 28 28 27 26 25 24 23 21 19 17 16 14 13 11 8 7 5 5 5 5 6 7 7 7 7 8 9 10 10 10 10 9 9 8 8 9 10 11 11 12 13 13 13 12 12
20 20 21 20 20 19 18 19 21 22 22 22 21 20 19 19 20 21 22 22 22 22 22 20 19 19 18 18 23 30 34 33 29 24 22 22 25 28 29 29 29 29 28 28 27 26 25 23 22 20 18 16 14 13 11 8 7 6 5 5 6 7 8 8 8 7 8 9 10 11 11 10 10 9 9 9 10 10 11 11 12 12 13 13 13 13
23 23 25 22 20 18 18 20 22 24 24 23 22 21 20 20 20 21 21 21 22 22 21 19 20 20 20 20 23 29 35 35 30 24 20 20 22 26 29 30 29 29 29 28 28 27 26 24 23 21 19 17 15 13 11 9 7 6 6 6 7 8 8 8 8 8 8 9 10 11 11 11 10 10 9 9 10 10 10 11 12 12 12 13 13 13
24 24 25 23 21 20 20 20 21 23 25 25 24 23 22 21 20 21 21 21 21 21 20 20 21 21 21 21 24 30 36 37 32 25 20 16 17 22 28 29 29 28 27 28 28 28 27 25 23 22 19 17 15 13 11 9 8 7 7 7 8 9 9 9 9 8 9 10 11 11 11 10 10 10 9 9 10 10 10 11 11 12 12 12 13 13
28 27 26 24 24 23 22 21 21 23 25 26 27 27 26 25 24 24 23 23 23 23 23 23 22 22 21 21 23 28 34 37 34 27 21 15 15 20 26 28 28 27 26 27 29 28 27 26 24 22 20 17 15 13 11 9 8 8 8 8 9 9 10 10 9 9 9 10 11 11 11 10 10 10 10 10 10 10 10 10 11 11 12 12 12 12
32 30 28 26 25 25 24 23 23 24 25 27 28 28 29 28 28 27 27 26 25 25 25 25 22 19 18 19 21 26 32 36 35 28 20 16 17 21 26 28 27 25 24 27 29 29 27 26 24 22 20 17 15 13 11 10 9 9 9 9 10 10 10 10 10 10 10 10 11 11 11 11 11 11 10 10 10 10 10 10 11 11 11 12 12 12
32 30 29 27 26 25 25 24 24 25 26 27 28 29 29 29 28 27 26 26 26 25 24 20 17 14 15 17 21 25 31 36 35 29 21 16 16 20 26 28 26 23 23 26 28 28 27 26 24 22 20 18 15 13 11 10 10 10 10 10 11 11 11 11 11 11 10 10 11 11 11 11 11 11 11 11 11 11 11 10 10 10 11 11 12 12
31 30 29 28 27 26 25 25 25 25 26 27 28 30 30 29 27 25 23 23 24 23 21 17 14 13 14 16 19 24 30 35 35 31 24 18 16 18 25 28 27 23 22 25 27 27 27 25 24 22 20 18 15 13 12 11 11 11 11 11 12 12 12 12 11 11 11 11 11 11 11 12 12 12 12 11 11 11 11 10 10 10 10 11 12 12
32 30 29 29 28 27 26 25 24 24 24 25 28 30 31 29 26 23 22 23 24 23 19 15 11 10 12 13 16 21 28 34 35 33 28 22 18 17 23 27 27 24 22 23 25 26 25 24 23 22 20 18 16 14 12 12 12 12 12 12 13 13 13 12 12 11 11 11 12 12 12 12 12 12 12 11 11 11 10 10 10 10 10 11 11 12
33 32 31 30 29 29 28 26 25 23 22 24 26 30 31 30 26 23 22 24 25 23 20 16 11 8 9 11 14 19 27 32 34 34 30 25 18 16 22 27 27 24 21 20 22 24 23 22 21 20 19 17 16 15 14 13 13 13 13 13 13 14 13 13 12 12 12 12 12 12 13 12 12 12 11 11 11 10 10 10 9 9 10 10 10 11
34 33 33 32 32 31 30 28 26 24 23 24 26 30 32 32 29 26 25 26 25 22 20 19 16 12 11 12 14 17 22 27 32 34 32 25 17 16 23 27 27 24 20 18 17 17 18 19 19 19 18 17 16 16 15 14 14 14 14 14 14 14 13 13 13 12 12 12 13 13 13 12 12 11 11 11 10 10 10 9 9 10 10 10 10 11
34 34 34 34 33 32 30 28 27 25 25 25 27 30 33 33 32 30 28 27 26 24 21 20 18 15 13 11 9 9 14 22 30 34 32 24 17 17 23 25 26 25 23 18 11 7 10 15 18 18 18 17 17 17 17 17 17 16 16 15 14 14 14 13 13 13 13 13 13 13 13 12 12 11 11 10 10 10 10 10 10 10 10 11 11 11
33 33 33 33 32 31 29 28 27 27 27 27 28 31 34 34 33 31 29 29 28 26 23 20 18 17 16 11 6 4 7 19 29 33 33 25 19 18 23 24 25 26 27 21 11 3 4 10 15 18 18 18 18 19 19 19 19 19 18 17 16 15 14 14 14 13 13 13 13 13 13 13 12 12 11 11 10 10 10 10 11 11 12 12 12 11
32 32 32 32 31 29 28 27 27 27 27 28 30 32 34 34 33 32 31 31 31 29 26 22 20 20 20 16 11 8 9 20 29 34 34 26 20 21 25 24 25 27 28 25 17 9 4 6 13 19 19 19 20 21 20 20 20 20 19 19 19 17 16 15 14 14 14 14 14 13 13 13 12 12 12 11 11 10 10 10 11 13 13 13 12 11
30 30 30 29 28 27 26 26 27 27 28 29 31 33 34 34 33 33 32 32 32 31 29 25 23 21 21 21 18 14 14 21 30 35 36 28 22 20 24 24 25 26 27 25 20 13 8 9 12 17 19 21 21 22 21 21 20 20 20 20 20 19 18 16 15 15 15 14 14 14 13 13 12 12 12 12 11 11 10 11 12 13 14 13 12 11
27 27 26 26 26 26 26 26 27 28 29 30 31 33 33 34 33 32 32 31 32 31 31 28 26 24 21 20 18 16 15 21 29 36 37 32 25 22 25 25 26 26 26 22 17 12 9 12 14 15 16 20 22 21 21 21 21 20 20 20 20 20 19 18 17 16 16 15 15 15 14 14 13 13 13 12 12 11 11 11 12 13 13 13 13 12
23 23 23 24 24 24 25 27 28 29 29 30 31 32 33 33 33 32 31 31 30 30 30 30 29 28 25 21 18 16 17 21 28 34 37 35 30 26 26 26 27 27 25 22 18 13 9 13 16 17 15 17 19 20 21 21 20 20 19 20 20 20 20 19 18 18 18 17 17 17 16 16 16 15 14 14 13 12 11 11 11 12 12 12 12 12
21 21 21 22 23 24 25 26 27 28 29 30 31 32 32 33 33 32 31 30 30 29 29 29 29 29 28 26 24 23 23 25 28 33 37 38 35 30 26 26 28 28 25 23 20 17 13 14 16 18 17 15 15 17 19 20 20 19 19 20 20 20 20 20 20 20 20 20 19 19 18 18 18 17 16 14 13 12 11 10 10 11 11 11 11 11
20 20 20 22 23 24 24 25 25 26 27 29 30 31 32 32 32 32 31 30 29 29 28 28 27 27 27 27 27 27 27 27 28 31 36 39 37 33 28 26 29 30 28 24 22 19 16 14 14 15 15 14 13 14 18 20 20 19 19 20 21 21 21 21 21 21 21 21 21 20 20 19 18 17 16 14 13 11 10 10 10 10 10 10 10 10
20 20 21 22 23 23 24 24 24 25 26 28 29 30 31 31 31 31 30 29 28 28 27 27 26 26 26 25 25 25 26 26 26 29 35 38 38 35 31 28 29 31 31 28 26 23 20 15 12 10 11 13 13 15 19 21 21 20 20 20 21 21 22 22 22 22 22 22 22 21 20 19 18 17 15 14 13 12 11 10 9 9 9 9 9 10
20 20 21 22 23 23 23 23 24 25 26 27 29 30 30 30 30 29 28 27 27 26 26 25 25 24 24 24 23 23 23 23 24 27 31 36 38 36 33 30 29 30 31 30 28 26 22 19 15 13 12 12 13 15 19 22 22 21 21 21 21 21 21 22 22 22 23 23 22 21 20 19 18 17 15 15 14 13 11 11 10 9 8 8 9 9
21 21 21 22 23 24 23 23 24 25 27 28 29 30 29 29 28 27 26 25 25 24 24 24 24 24 23 23 22 21 20 20 22 24 28 33 36 36 33 31 30 31 30 29 27 25 24 21 19 18 17 16 15 16 18 21 22 23 22 19 18 20 22 23 23 23 23 23 22 22 21 19 18 17 16 15 14 13 12 11 10 9 9 9 9 10
21 21 21 22 23 23 22 23 25 26 28 28 29 28 28 27 26 25 24 23 23 23 23 23 23 22 22 21 20 20 19 19 20 23 27 31 35 36 33 31 30 31 31 29 27 25 23 21 20 20 19 19 19 19 19 21 23 24 22 20 19 21 23 23 23 23 23 22 22 21 20 19 18 17 16 15 13 12 11 10 10 9 9 10 10 10
21 21 21 20 21 21 22 23 24 26 27 28 28 27 27 27 26 25 24 23 22 22 22 22 21 20 19 18 18 18 18 19 20 23 27 30 33 34 32 30 29 30 31 29 26 24 23 21 21 21 21 21 19 18 18 21 24 24 22 21 21 21 21 23 24 23 23 22 22 21 20 19 18 17 15 14 12 11 11 10 10 10 10 10 10 11
21 20 20 20 20 21 22 22 23 25 26 26 26 26 27 27 27 26 25 23 23 23 22 22 21 20 19 18 17 18 18 19 21 23 26 29 31 32 31 29 28 28 29 28 25 23 22 21 20 21 22 22 22 20 19 21 23 23 22 22 23 20 15 20 24 25 23 23 22 21 20 19 18 16 14 13 12 11 11 11 11 11 10 10 10 11
20 19 19 20 21 21 22 22 23 24 25 24 24 25 26 26 26 25 24 23 23 23 23 22 21 20 19 18 17 18 19 21 22 23 25 26 27 28 28 27 25 25 26 27 25 23 21 20 20 20 21 22 22 22 21 21 23 23 24 24 24 22 20 22 25 27 25 24 23 22 20 19 17 16 14 13 13 12 12 12 11 11 10 10 10 10
20 20 20 21 21 21 21 21 22 23 23 23 23 24 25 25 25 24 24 24 23 23 23 23 22 19 16 16 17 18 19 20 20 21 22 23 23 23 23 23 22 22 22 23 24 23 22 21 21 20 20 21 21 21 22 22 23 24 25 25 25 24 22 21 24 27 26 25 24 23 21 19 17 16 15 15 14 14 13 12 12 11 10 10 10 10
21 21 21 22 22 22 21 21 21 21 20 20 21 22 24 24 24 23 24 24 24 23 23 24 21 18 16 16 17 18 18 18 19 20 21 21 21 21 20 20 19 19 19 20 21 22 23 23 23 22 21 20 20 21 23 24 25 25 25 26 25 23 21 18 19 23 25 26 25 23 21 20 18 17 16 16 15 14 13 13 12 11 10 10 9 9
22 22 22 22 22 22 21 20 19 19 18 18 19 21 22 23 24 24 24 24 24 23 23 22 20 18 17 18 18 18 18 18 19 19 20 20 20 20 19 19 18 18 18 19 19 19 20 21 22 22 22 21 19 19 21 23 25 26 26 26 26 24 22 19 17 17 20 22 23 23 21 20 19 18 17 16 15 14 13 12 11 10 10 9 9 9
23 22 22 22 22 21 20 19 19 18 17 17 18 19 21 23 23 23 23 23 23 22 21 20 18 17 18 18 19 19 19 19 20 20 21 21 21 21 21 20 20 19 19 19 19 18 18 18 19 20 22 21 20 20 21 23 24 26 27 27 26 25 23 20 17 14 15 17 19 20 20 19 19 18 16 15 14 13 13 12 11 10 10 10 10 10
23 23 23 22 22 21 20 19 19 18 17 17 17 18 20 21 22 22 22 23 23 21 20 19 18 17 17 17 18 19 19 20 20 22 22 23 23 23 23 23 22 22 21 20 20 19 18 18 18 18 19 20 20 21 22 22 23 23 24 25 25 25 24 21 18 15 14 15 16 17 17 16 16 15 14 13 13 13 12 11 11 10 10 10 10 10
22 23 23 23 22 21 21 20 20 19 18 18 18 19 19 20 20 21 22 22 22 21 20 20 19 18 17 17 18 18 19 19 20 21 22 24 25 25 25 25 25 24 22 21 19 18 18 17 17 17 17 16 17 19 21 22 22 21 22 23 23 23 23 21 19 16 15 15 15 15 15 14 13 12 11 12 12 11 11 10 10 10 10 10 10 10
22 22 23 23 22 22 21 21 20 19 19 19 19 19 20 19 19 20 20 21 20 20 19 20 20 19 18 18 18 18 19 20 20 21 22 24 26 26 26 26 27 25 22 18 16 15 15 12 11 11 14 15 14 15 19 22 23 22 22 22 22 22 22 21 19 17 16 15 15 15 14 13 13 12 12 11 11 11 11 10 10 10 10 10 10 10
Wind_Direction
238 240 243 245 245 243 242 245 244 243 244 245 246 246 247 247 247 245 243 238 236 235 235 235 233 231 229 228 228 228 229 228 226 223 221 219 217 215 216 217 220 221 222 222 223 229 238 240 233 220 211 208 209 210 210 210 209 209 209 207 203 199 198 193 186 180 176 174 175 177 179 180 181 183 184 186 188 191 194 198 200 198 188 174 157 143
238 238 238 240 240 239 240 244 245 243 243 245 246 247 246 245 245 244 242 239 236 235 234 233 232 230 229 229 228 228 226 224 222 220 217 215 214 213 215 217 219 220 219 219 223 231 237 235 225 213 205 203 203 203 201 200 198 195 193 189 187 186 185 181 176 171 168 168 170 175 182 186 188 189 191 193 195 196 197 201 200 195 185 173 160 148
240 237 236 237 237 236 237 240 243 244 244 245 246 246 245 244 243 242 241 239 238 236 234 232 230 229 229 229 229 227 225 221 219 217 215 213 212 213 215 217 218 217 214 214 219 224 226 220 211 202 197 195 195 193 190 186 182 179 176 173 171 170 168 167 165 162 160 161 165 172 180 186 190 191 192 191 191 194 198 202 201 196 187 177 168 160
241 238 236 236 236 236 237 239 241 242 243 243 243 243 242 240 240 241 242 241 239 237 234 232 229 227 227 228 226 224 221 218 216 215 214 213 214 216 218 218 216 213 211 210 211 212 211 205 199 194 192 190 189 187 183 180 177 175 173 171 169 167 166 165 164 163 162 163 168 174 181 185 187 188 189 188 190 195 202 206 206 202 193 184 177 173
238 237 237 235 234 235 238 239 240 239 239 239 238 236 235 235 237 240 242 242 240 237 233 230 227 225 225 225 222 217 213 211 211 211 212 214 214 216 217 216 214 210 207 205 204 202 199 195 191 189 188 187 185 183 181 179 178 175 173 172 170 169 169 169 169 169 170 172 175 179 182 185 188 189 190 192 195 200 206 210 211 208 201 192 186 183
238 238 238 235 233 234 236 236 235 234 233 232 232 231 230 232 235 238 240 240 239 236 232 228 226 225 225 224 218 210 205 204 204 206 208 210 210 210 211 210 209 206 203 199 196 195 193 191 189 188 187 186 185 184 183 181 180 178 176 174 174 174 173 173 174 175 177 179 182 186 188 191 193 195 198 201 203 206 209 213 216 215 209 200 194 191
241 238 237 234 233 232 231 231 230 229 226 224 225 227 229 231 233 235 237 238 237 234 230 227 225 225 225 222 215 206 200 199 199 201 203 204 204 203 202 202 202 201 199 195 192 191 191 191 190 189 188 188 187 186 185 184 183 182 180 179 179 179 180 180 181 182 184 186 189 193 196 199 202 206 208 211 213 215 217 220 221 222 217 209 202 198
243 238 232 226 224 224 225 225 226 225 223 221 220 221 225 228 230 232 234 235 234 231 228 225 223 222 220 217 211 203 198 196 196 196 196 196 195 195 195 196 196 196 197 194 192 192 192 192 192 191 190 189 188 188 188 187 187 187 187 187 187 188 189 190 192 193 195 197 201 204 207 211 214 217 220 222 224 226 228 228 228 226 223 217 210 205
242 237 230 223 218 216 216 220 222 222 222 221 219 218 219 222 224 226 227 228 228 227 224 221 217 214 212 209 205 200 197 196 195 194 192 190 189 189 190 191 193 194 195 194 194 193 193 193 193 192 190 189 189 189 190 191 192 193 194 196 197 199 201 204 207 209 212 215 218 221 224 227 229 232 234 235 237 238 238 237 233 228 223 219 214 208
242 238 232 227 223 218 214 215 219 220 220 220 221 221 221 217 216 216 216 218 221 221 219 215 209 204 201 199 197 196 195 195 196 194 192 190 189 189 189 190 191 193 195 195 194 193 193 193 192 191 191 191 191 193 194 195 197 199 202 205 208 212 216 219 223 227 231 234 237 240 241 242 243 244 245 246 246 245 244 240 234 227 219 214 210 207
241 239 233 227 224 222 218 217 217 216 215 215 217 219 221 219 213 205 201 206 210 212 210 207 203 198 192 189 190 191 191 189 189 189 189 189 189 189 190 190 191 192 193 193 193 192 191 191 191 190 190 192 194 196 199 201 204 207 210 214 219 223 227 232 236 239 243 245 247 249 250 250 251 251 251 250 249 247 243 238 230 222 214 208 203 200
239 237 234 228 222 218 217 217 215 212 207 205 207 212 215 215 213 207 199 199 202 202 200 199 197 194 189 186 185 186 188 185 183 182 183 184 185 186 187 188 189 189 189 189 189 190 190 190 189 190 191 194 197 201 205 209 212 215 219 223 227 231 235 238 242 244 247 248 248 249 250 251 251 251 250 248 246 242 236 229 222 214 207 201 195 190
236 235 231 227 221 216 212 209 205 200 198 199 202 206 209 209 209 208 205 205 203 200 196 192 190 189 189 187 185 185 185 184 183 181 180 180 182 183 185 185 184 184 184 184 185 186 187 187 189 191 194 198 202 206 209 212 215 219 223 228 231 235 238 240 242 244 245 244 243 243 244 244 244 244 243 240 236 231 224 217 210 204 198 192 186 180
233 229 223 220 218 215 209 204 197 195 200 204 208 209 208 207 205 204 204 205 204 201 196 190 187 187 186 185 185 186 185 183 181 180 179 180 182 184 185 184 183 183 183 182 183 184 185 187 189 193 198 202 205 206 207 208 212 217 223 228 232 235 237 238 238 238 237 235 233 231 230 228 227 227 228 226 221 215 209 203 197 192 187 182 176 171
227 221 216 216 216 214 209 205 204 206 209 211 211 210 207 204 201 200 199 199 199 197 193 190 188 187 186 184 184 185 185 183 180 178 179 181 183 184 185 184 184 184 184 183 183 185 188 191 194 197 201 203 204 203 202 203 208 215 222 228 231 233 233 232 230 228 224 221 218 214 210 205 202 204 207 205 200 196 191 188 184 182 179 174 168 163
224 216 215 218 219 217 213 209 209 211 213 212 209 204 199 197 197 197 196 195 192 188 184 183 185 189 193 190 186 184 183 182 180 178 179 181 183 184 186 185 184 184 185 186 186 187 190 195 200 203 204 203 202 200 200 203 209 217 225 230 231 230 227 224 220 216 211 208 203 198 192 187 184 185 187 185 180 176 174 174 174 174 173 170 166 162
225 220 220 222 223 221 217 212 212 213 213 210 206 202 200 198 196 195 194 192 187 184 185 185 185 190 199 198 191 186 183 181 180 180 180 181 183 185 188 188 186 185 186 188 190 191 192 197 202 205 206 204 201 199 201 206 214 222 229 230 227 222 218 214 211 207 202 197 192 187 182 178 176 176 176 173 168 164 163 165 168 170 169 167 166 164
228 223 221 223 225 224 218 212 211 211 210 207 204 203 202 201 199 195 193 191 188 187 190 192 193 193 192 196 195 190 184 182 180 179 180 182 184 186 189 191 190 189 188 189 192 194 196 200 204 206 206 204 202 202 204 210 218 225 228 224 218 213 209 206 205 201 197 191 186 181 178 175 173 172 172 169 165 161 161 162 165 166 166 166 165 165
231 227 224 225 227 226 220 212 208 207 205 203 200 199 199 200 199 197 195 194 193 192 193 196 199 200 198 197 194 191 186 183 181 179 179 182 184 186 188 190 191 191 190 189 191 195 198 202 205 207 206 204 204 204 207 213 219 224 224 218 211 206 203 202 202 199 194 188 184 180 178 175 173 171 171 169 166 164 162 162 164 165 165 165 166 165
234 232 228 228 228 227 222 216 211 208 206 204 201 198 197 199 199 199 199 199 199 198 198 199 202 204 202 199 195 191 187 184 180 178 180 183 184 185 187 188 189 189 189 189 191 194 197 201 204 205 205 204 205 206 209 214 218 221 219 214 207 202 200 200 199 197 193 188 184 181 178 176 174 173 172 172 170 168 166 166 165 165 165 165 165 166
237 236 234 230 227 226 225 221 218 215 212 207 202 199 199 200 200 201 202 201 201 201 202 204 206 207 204 200 196 193 189 185 181 178 180 182 184 185 185 186 187 187 187 188 189 192 195 199 201 202 202 202 204 207 210 214 216 218 216 211 204 200 198 198 197 196 193 189 184 181 179 177 175 175 175 175 173 171 169 168 167 167 167 167 166 167
236 236 235 231 228 226 228 227 224 220 216 208 202 200 202 201 201 202 203 202 201 202 204 208 209 208 207 204 201 196 192 189 185 180 177 177 184 187 184 185 185 186 185 186 187 189 193 196 200 201 201 201 203 207 210 213 214 214 212 207 201 198 196 197 197 196 193 189 183 180 178 177 176 176 176 176 175 173 172 171 170 170 170 169 169 170
236 237 236 233 230 229 229 230 229 225 219 212 208 207 208 206 205 205 205 204 204 204 205 206 207 206 206 205 203 199 195 192 189 184 177 176 185 189 185 184 183 184 184 185 185 187 191 195 198 199 200 200 203 207 209 211 211 211 209 204 199 196 195 196 196 196 194 188 182 179 178 178 177 177 177 176 175 173 172 171 171 171 171 172 172 173
236 236 235 234 232 231 230 229 228 226 222 217 215 215 216 216 216 214 212 209 206 205 204 204 202 201 201 201 199 196 195 194 191 187 181 181 186 187 186 183 181 181 183 185 185 185 189 193 196 198 198 199 202 206 208 208 208 208 205 201 197 195 194 194 195 196 194 187 181 178 179 179 177 177 177 178 176 174 172 171 170 170 171 173 174 175
237 236 234 232 231 230 229 228 227 226 223 220 217 217 217 217 217 215 212 209 205 202 200 196 191 188 189 189 188 190 193 193 191 189 185 183 180 181 186 184 182 181 182 184 185 186 188 191 194 197 197 198 200 203 205 205 205 205 203 200 196 194 193 193 194 194 193 185 180 179 180 179 178 177 179 179 178 176 174 171 170 169 170 172 174 176
239 238 236 233 231 230 228 227 227 227 226 222 218 215 213 211 209 206 203 200 198 194 188 183 183 185 183 180 182 186 190 191 192 191 189 180 170 174 185 186 184 182 181 184 185 185 188 191 193 196 196 196 197 200 202 203 203 203 201 198 196 194 192 191 193 195 192 184 180 180 181 180 179 179 181 182 181 179 177 175 173 173 173 175 176 178
242 241 239 236 233 230 228 226 226 228 229 225 220 215 210 205 200 196 192 192 191 187 182 186 192 192 186 183 186 189 189 189 191 193 193 185 172 171 182 185 186 183 181 182 184 186 189 192 194 196 196 195 194 195 198 200 201 201 200 197 195 193 191 190 192 194 190 184 181 181 182 181 180 180 182 184 185 183 182 180 179 180 181 182 182 182
242 242 241 239 237 234 231 229 230 232 234 230 223 215 208 201 195 191 192 192 190 187 188 193 194 189 189 193 193 192 190 189 190 193 194 189 179 173 181 184 184 183 177 177 182 187 191 194 196 197 197 195 193 192 194 196 199 199 198 196 193 191 189 189 191 191 188 184 182 182 182 181 180 181 183 184 185 184 183 183 184 187 189 188 186 185
240 240 240 240 239 237 234 234 234 236 237 234 225 216 209 203 199 198 198 195 189 187 193 198 198 193 188 188 188 189 191 192 192 193 193 188 180 177 180 180 181 180 173 168 172 183 192 197 198 197 196 195 194 192 190 191 194 196 194 193 192 190 188 189 189 188 186 183 182 182 182 181 181 181 183 183 182 181 179 180 184 188 189 186 184 183
235 235 235 236 235 235 234 235 236 237 237 234 225 216 210 207 206 205 203 197 191 190 197 201 198 190 177 168 169 184 197 199 196 193 191 186 180 176 176 176 178 179 174 164 158 172 196 200 199 197 195 195 194 192 189 189 190 192 190 189 188 188 187 188 188 187 185 183 182 182 182 181 181 181 181 180 178 176 174 177 182 184 181 177 175 175
228 226 226 227 228 230 231 234 236 237 235 230 222 214 209 207 207 206 204 199 195 194 197 198 193 184 173 163 160 182 205 203 198 193 191 187 182 177 174 173 177 180 179 173 166 159 189 200 201 198 194 193 193 193 191 191 191 192 191 188 186 185 186 188 188 187 185 184 183 183 182 182 182 181 180 177 174 172 171 176 180 178 173 170 168 167
221 220 219 221 222 224 228 231 233 233 230 223 215 210 207 205 205 205 203 202 200 198 197 196 191 186 182 185 190 195 197 199 196 194 191 188 182 178 177 175 176 179 182 181 179 172 158 178 194 196 192 192 193 193 193 194 195 196 195 191 188 185 184 186 188 188 186 185 185 184 184 183 183 182 180 177 173 171 171 177 179 175 170 167 166 166
216 216 216 217 218 220 223 226 226 224 220 213 208 205 204 204 204 204 205 205 205 202 199 196 192 188 190 195 200 201 196 195 195 194 191 187 180 175 177 177 177 178 180 182 182 178 165 163 176 186 190 192 193 193 194 195 197 199 198 195 192 188 185 185 188 189 188 187 186 185 186 186 185 183 180 176 173 172 174 179 180 178 173 170 169 170
213 212 211 211 212 215 217 218 217 214 211 206 203 202 202 202 203 204 205 207 208 207 204 201 196 191 190 196 201 201 196 196 196 195 192 189 183 176 176 176 176 177 178 180 180 175 162 161 164 171 182 190 192 193 194 196 198 199 200 199 196 192 187 186 188 191 189 187 185 184 185 185 184 182 180 176 175 175 177 182 184 182 180 177 175 174
209 208 207 206 206 207 208 209 208 206 204 201 200 200 201 202 203 204 206 208 209 210 210 209 207 202 196 195 195 195 193 196 197 195 193 192 188 181 176 177 179 178 177 178 177 169 152 157 162 165 170 182 189 193 194 195 197 198 200 200 199 195 190 188 189 191 190 187 185 184 183 182 182 181 181 179 179 179 181 183 186 187 187 186 185 184
205 204 203 202 201 201 202 202 201 200 199 198 198 199 200 202 203 205 207 208 210 210 211 212 213 213 209 206 202 200 199 199 198 195 194 195 193 187 180 181 182 182 179 179 179 175 161 155 160 165 165 169 181 191 193 193 194 196 198 199 198 196 192 191 192 192 191 188 186 185 185 185 185 185 185 185 185 185 185 186 187 189 191 193 194 194
203 203 203 201 200 199 199 199 198 196 195 194 195 196 198 200 203 205 207 209 210 210 211 212 213 214 215 215 214 213 210 206 201 198 197 198 197 193 186 185 186 185 182 179 178 175 165 156 156 162 165 168 175 183 189 189 190 193 195 196 195 194 192 193 194 195 194 191 189 189 190 191 191 191 191 191 191 192 191 190 190 191 193 195 197 200
202 204 204 202 200 199 198 196 195 193 192 191 191 193 195 198 201 204 206 208 209 210 210 210 211 212 213 214 217 219 218 213 206 202 200 200 200 197 191 187 187 187 187 184 180 175 167 160 158 164 173 179 180 180 182 184 186 189 191 192 192 192 192 193 196 197 197 195 194 194 195 196 197 197 197 198 198 199 199 199 198 197 198 200 202 203
202 203 202 200 199 197 196 194 192 191 190 189 190 191 193 196 199 202 204 205 206 207 208 208 209 210 210 211 213 216 218 216 212 208 204 202 201 199 196 190 187 187 189 188 184 179 173 170 170 172 175 177 177 178 180 181 183 184 185 186 189 191 193 194 196 198 199 199 198 198 199 200 201 203 203 205 206 206 207 207 209 210 211 213 213 212
201 201 200 198 197 196 195 194 191 189 188 188 188 189 191 192 194 196 198 200 201 202 204 205 206 207 207 208 209 211 214 215 214 211 208 204 202 201 199 195 190 187 187 187 185 183 180 178 177 176 174 172 172 173 176 179 181 180 178 178 183 190 193 195 197 199 201 202 202 202 202 204 205 207 208 210 212 213 213 214 215 218 221 222 223 222
199 198 197 197 195 193 192 192 190 188 187 186 185 184 185 186 186 186 188 190 192 194 197 199 200 201 202 203 205 206 207 209 209 209 207 205 202 201 200 198 194 189 185 185 185 186 185 183 180 177 175 172 170 171 174 177 179 179 176 177 181 186 189 194 197 200 202 204 206 207 207 207 209 210 212 214 215 216 218 220 222 225 228 230 230 229
197 196 194 191 189 188 188 188 186 185 184 183 180 179 180 181 180 179 178 177 179 183 188 189 188 187 186 189 194 198 200 202 204 204 204 203 201 200 199 198 196 192 187 184 184 186 189 188 184 180 177 173 169 169 173 177 179 180 180 180 180 180 185 192 197 201 202 205 207 209 210 211 212 214 215 217 220 222 225 228 232 234 236 236 235 233
194 191 188 184 182 183 183 182 180 179 178 177 175 176 177 179 179 178 175 172 172 175 178 181 180 175 168 167 173 182 188 193 196 198 198 199 199 199 199 198 198 195 190 184 181 183 189 191 190 188 185 180 173 169 169 174 178 180 183 182 178 175 178 188 195 199 203 206 208 210 212 213 215 217 220 224 228 232 235 237 238 239 240 240 238 235
187 183 179 177 177 178 179 177 176 175 174 172 172 172 174 176 176 175 173 170 169 170 171 172 171 166 157 153 156 165 174 181 186 189 192 194 196 197 198 199 199 198 195 188 182 180 183 186 190 191 190 186 179 173 171 173 177 180 183 184 183 182 182 187 192 195 200 204 208 210 212 214 216 220 225 229 234 237 239 240 240 241 240 239 237 232
177 173 171 171 172 172 172 173 174 174 173 172 171 171 170 172 173 173 171 168 167 166 167 167 163 156 149 147 150 155 162 169 175 180 184 188 191 194 196 198 198 198 198 196 192 188 183 180 182 186 189 187 183 178 175 175 178 181 184 186 189 191 193 193 194 196 198 201 205 209 211 214 217 221 226 230 232 234 236 237 238 238 237 236 233 228
169 167 166 168 168 169 170 173 174 173 172 171 171 170 170 170 170 171 171 168 166 165 166 167 163 156 152 152 151 151 152 158 165 171 177 181 185 188 191 194 195 196 197 198 200 198 194 188 184 181 179 179 181 182 182 180 179 181 184 187 190 193 196 197 199 201 202 204 205 207 210 214 217 220 223 226 229 230 232 233 233 233 231 229 226 221
166 165 164 165 166 167 170 172 172 171 171 170 170 170 170 170 169 169 170 169 167 165 165 165 164 161 158 156 155 153 151 151 156 162 169 173 176 179 181 184 187 189 191 193 194 196 198 196 192 185 177 172 173 178 185 186 185 183 185 188 190 193 195 198 200 204 206 207 207 208 209 212 214 217 220 223 224 225 226 226 225 224 222 220 219 216
166 164 164 163 163 164 166 169 171 172 172 172 171 171 172 171 170 169 168 168 167 165 164 164 163 160 158 159 159 159 156 153 153 156 161 165 168 170 172 173 175 178 180 183 183 184 186 189 191 190 186 181 176 176 181 187 189 188 188 189 191 193 196 197 198 198 199 202 204 205 206 208 209 211 213 214 216 219 220 219 218 216 214 214 213 212
166 164 163 162 162 163 165 169 172 173 173 172 171 171 173 173 173 171 169 169 168 167 166 166 163 159 158 160 161 161 158 156 155 156 157 160 162 163 164 166 167 168 169 171 172 173 174 176 180 186 192 193 187 182 182 185 188 190 191 191 191 193 195 195 194 190 188 188 191 195 199 202 205 206 207 207 210 213 214 214 213 212 211 210 211 209
164 163 163 163 163 165 167 170 172 174 174 172 171 171 172 173 174 174 173 171 170 170 170 169 166 162 160 161 162 161 159 157 156 156 157 159 160 160 160 161 161 159 157 159 161 164 165 167 173 181 189 197 197 192 186 183 184 187 190 191 192 192 193 192 190 187 183 181 181 184 189 194 197 200 203 206 208 211 213 212 211 210 210 210 209 207
162 163 163 164 166 167 169 171 172 174 174 173 172 171 171 172 172 174 173 173 173 173 173 172 168 165 163 164 164 164 163 161 160 159 160 161 161 161 160 160 159 156 152 150 152 155 156 158 166 180 189 193 197 199 195 184 180 182 185 188 191 192 192 191 189 187 185 182 182 184 187 190 193 196 200 203 206 210 214 214 211 208 207 208 207 205